Regional Weather Roundup
Issued by NWS Huntsville, AL

Home | Current Version | Previous Version | Text Only | Print | Product List | Glossary On
Versions: 1 2 3 4 5 6 7 8 9 10 11 12 13 14 15 16 17 18 19 20 21 22 23 24 25 26 27 28 29 30 31 32 33 34 35 36 37 38 39 40 41 42 43 44 45 46 47 48 49 50
000
ASUS44 KHUN 280210
RWRHUN

WEATHER ROUNDUP FOR THE TENNESSEE VALLEY
NATIONAL WEATHER SERVICE HUNTSVILLE AL
900 PM CDT THU AUG 27 2015

ALZ001>004-280300-
NORTHWEST ALABAMA

CITY           SKY/WX    TMP DP  RH WIND       PRES   REMARKS
COURTLAND HCN    N/A     68 N/A N/A CALM        N/A
BANKHEAD NF      N/A     67  65  91 CALM        N/A
RUSSELLVILLE     N/A     64 N/A N/A MISG        N/A
SHOALS AIRPORT CLEAR     68  60  75 N5        30.07R
SHOALS TVA RES   N/A     73 N/A N/A MISG        N/A
$$

ALZ005>007-016-280300-
NORTH CENTRAL ALABAMA

CITY           SKY/WX    TMP DP  RH WIND       PRES   REMARKS
CULLMAN AG STN   N/A     72 N/A N/A N3          N/A
DECATUR AP     CLEAR     70  63  78 N6        30.05S
HUNTSVILLE AP  CLEAR     75  62  64 NE7       30.05R
HUN NWS/UAH      N/A     75  60  58 NE3         N/A
MERIDIANVILLE  CLEAR     68  61  77 CALM      30.06S
REDSTONE ARSN  CLEAR     72  63  73 NE6       30.04S
VINEMONT AP    FAIR      68  63  83 CALM      30.08S
$$

ALZ008>010-280300-
NORTHEAST ALABAMA

CITY           SKY/WX    TMP DP  RH WIND       PRES   REMARKS
ALBERTVILLE    MOCLDY    72  72 100 NE5       30.06R
FORT PAYNE     PTCLDY    70  64  83 CALM      30.07R
SCOTTSBORO AP  PTCLDY    72  66  83 CALM      30.07R
SCOTTSBORO HCN   N/A     70 N/A N/A MISG        N/A
VALLEY HEAD      N/A     70 N/A N/A MISG        N/A
$$

TNZ076-096-097-280300-
SOUTHEASTERN MIDDLE TENNESSEE

CITY           SKY/WX    TMP DP  RH WIND       PRES   REMARKS
TULLAHOMA      CLEAR     72  61  68 NE5       30.10S
WINCHESTER     CLEAR     70  63  78 CALM      30.09R
$$

...SURROUNDING SITES...

CITY           SKY/WX    TMP DP  RH WIND       PRES   REMARKS
ATLANTA        PTCLDY    78  64  61 NE10      30.07R
ANNISTON       CLEAR     72  67  84 CALM      30.04R
BIRMINGHAM     MOCLDY    78  66  66 NE6       30.05R
CHATTANOOGA    PTCLDY    74  64  71 CALM      30.07R
DALTON         CLOUDY    73  68  83 NW3       30.07R
GADSDEN        PTCLDY    73  63  68 N3        30.03R
GOLDEN TRNGL   CLEAR     70  57  64 N3        30.03R
HALEYVILLE     FAIR      67  64  90 CALM      30.08R
JACKSON TN     CLEAR     62  59  90 CALM      30.06S
MEMPHIS        PTCLDY    75  58  55 E5        30.05S
NASHVILLE      CLEAR     72  55  55 NE6       30.10R
OXFORD MS      FAIR      64  59  82 CALM      30.07R
ROME           CLEAR     74  68  81 CALM      30.06R
SAVANNAH       CLEAR     63  32  31 CALM      30.07R
TUPELO         CLEAR     70  60  70 NE5       30.04R
TUSCALOOSA     CLEAR     73  66  78 CALM      30.01R
$$

...GULF COAST WEATHER...

CITY           SKY/WX    TMP DP  RH WIND       PRES   REMARKS
GULFPORT       CLEAR     79  63  57 CALM      29.97R
PASCAGOULA     CLEAR     71  68  90 CALM      29.98R
MOBILE         CLEAR     75  64  68 NW6       29.99R
GULF SHORES    PTCLDY    75  69  80 CALM      29.97R
PENSACOLA      PTCLDY    76  66  71 NW5       29.96R
DESTIN         CLEAR     81  65  58 CALM      29.96R
PANAMA CITY    CLEAR     76  66  70 NW3       29.95R
APPALACHICOLA  CLEAR     76  66  71 NW5       29.94R
$$



USA.gov is the U.S. government's official web portal to all federal, state and local government web resources and services.